Regional Weather Roundup
Issued by NWS

Home | Current Version | Previous Version | Graphics & Text | Print | Product List | Glossary On
Versions: 1 2 3 4 5 6 7 8 9 10 11 12 13 14 15 16 17 18 19 20 21 22 23 24 25 26 27 28 29 30 31 32 33 34 35 36 37 38 39 40 41 42 43 44 45 46 47 48 49 50
000
ASUS45 KBOU 281507
RWRCO

WEATHER ROUNDUP FOR COLORADO
NATIONAL WEATHER SERVICE DENVER/BOULDER CO
900 AM MDT SAT MAR 28 2015

NOTE: "FAIR" INDICATES FEW OR NO CLOUDS BELOW 12000 FEET WITH NO
SIGNIFICANT WEATHER AND/OR OBSTRUCTIONS TO VISIBILITY.

COZ001>005-013-030-031-281600-
...NORTHWEST COLORADO...

CITY           SKY/WX    TMP DP  RH WIND       PRES   REMARKS
CRAIG          SUNNY     40  31  70 CALM      30.23S
HAYDEN         SUNNY     43  27  52 E13       30.23S
MEEKER         SUNNY     41  28  60 CALM      30.24S
MOUNT WERNER   NOT AVBL
STEAMBOAT SPGS SUNNY     36  28  73 CALM      30.24F
WALDEN         SUNNY     45  28  53 S6        30.24F
$$

COZ006>008-011-281600-
...WEST CENTRAL VALLEYS...

CITY           SKY/WX    TMP DP  RH WIND       PRES   REMARKS
GRAND JUNCTION SUNNY     51  28  41 SE6       30.20S
MONTROSE       SUNNY     49  27  42 S3        30.27R
EAGLE          SUNNY     36  27  69 CALM      30.31F
RIFLE          SUNNY     42  28  57 W3        30.25S
DELTA          SUNNY     48  28  45 E5        30.25S
NUCLA          SUNNY     45  27  49 E5        30.31S
$$

COZ017>023-064>068-281600-
...SOUTHWEST COLORADO...

CITY           SKY/WX    TMP DP  RH WIND       PRES   REMARKS
DURANGO        SUNNY     44  25  47 CALM      30.29S
CORTEZ         SUNNY     47  27  45 NE5       30.27S
PAGOSA SPRINGS SUNNY     45  21  38 CALM      30.34R
TELLURIDE      SUNNY     43  23  45 SE5       30.40S
WOLF CREEK PAS SUNNY     36  14  41 SW12      30.51R
$$

COZ009-010-012-014-032>034-037-058>063-281600-
...CENTRAL COLORADO...

CITY           SKY/WX    TMP DP  RH WIND       PRES   REMARKS
ASPEN          SUNNY     43  25  49 CALM      30.29F
BUENA VISTA    SUNNY     40  25  54 E3        30.29F
COPPER MTN     SUNNY     37  19  48 SW10G18   30.44S
BERTHOUD PASS  FAIR      28  23  80 NW32G44   30.41S WCI  12
COTTONWOOD PAS SUNNY     46  16  29 W13G25    30.35R
GUNNISON       SUNNY     34  21  60 CALM      30.39F
KREMMLING      SUNNY     36  28  75 CALM      30.31F
LEADVILLE      SUNNY     41  19  41 N8        30.35S
SALIDA         SUNNY     42  24  50 CALM      30.35F
SUNLIGHT       SUNNY     37  23  56 CALM        N/A
WILKERSON PASS SUNNY     36  19  51 W8G18     30.40S
$$

COZ069>075-281600-
...SAN LUIS VALLEY/SANGRE DE CRISTO MOUNTAINS...

CITY           SKY/WX    TMP DP  RH WIND       PRES   REMARKS
ALAMOSA        SUNNY     44  22  41 CALM      30.31S
LA VETA PASS   SUNNY     41  19  42 S6        30.37S
SAGUACHE       SUNNY     45  23  42 NW8       30.32S
$$

COZ035-036-038>040-281600-
...NORTHERN COLORADO FRONT RANGE...

CITY           SKY/WX    TMP DP  RH WIND       PRES   REMARKS
DENVER INTL AP SUNNY     61  32  33 SW8       30.09S
DMNS CITY PARK   N/A     57  27  32 S5G13     30.08F
AURORA         NOT AVBL
FRONT RANGE AP SUNNY     63  34  34 MISG      30.10S
ERIE MUNI ARPT SUNNY     60  34  37 CALM      30.06F
BOULDER MUN AP SUNNY     61  32  33 CALM      30.06F
CENTENNIAL     MOSUNNY   61  28  28 SW10      30.11F
BROOMFIELD     SUNNY     61  28  29 S6        30.09F
FORT COLLINS   SUNNY     54  34  47 CALM      30.07F
LONGMONT       SUNNY     58  34  40 E3        30.07F
$$

COZ041-046-047-076>085-087-088-281600-
...PIKES PEAK/PALMER DIVIDE AND SOUTHERN FOOTHILLS...

CITY           SKY/WX    TMP DP  RH WIND       PRES   REMARKS
COLO. SPRINGS  SUNNY     62  24  23 N7        30.16F
A. F. ACADEMY  SUNNY     56  24  28 NE7       30.17S
ELLICOTT       SUNNY    N/A N/A N/A N5        30.15S
FALCON         SUNNY     59  22  24 W9        30.20S
FORT CARSON    SUNNY     59  27  30 VRB1      30.14R
LIMON          SUNNY     58  31  35 W8        30.11S
MONUMENT HILL  SUNNY     55  27  33 SW7       30.18S
TRINIDAD       SUNNY     57  27  31 W17       30.17S
$$

COZ042>045-048>051-090-091-281600-
...NORTHEAST COLORADO...

CITY           SKY/WX    TMP DP  RH WIND       PRES   REMARKS
GREELEY ARPT   SUNNY     48  30  49 CALM      30.05F
AKRON          SUNNY     55  32  41 W14       30.05S
BURLINGTON     SUNNY     59  35  40 W6        30.05S
WRAY           SUNNY     54  35  48 CALM      30.03R
STERLING       SUNNY     48  34  57 S9        30.03S
HOLYOKE        SUNNY     59  34  38 W3        30.01S
FORT MORGAN    SUNNY     51  30  44 W8        30.06S
$$

COZ086-089-092>099-281600-
...SOUTHEAST COLORADO...

CITY           SKY/WX    TMP DP  RH WIND       PRES   REMARKS
PUEBLO         SUNNY     55  31  39 W7        30.11S
LA JUNTA       SUNNY     56  33  42 W15       30.08S
LAMAR          SUNNY     56  35  45 W10       30.05S
SPRINGFIELD      N/A     68  31  25 NW15      30.08R
$$


USA.gov is the U.S. government's official web portal to all federal, state and local government web resources and services.